Regional Weather Roundup
Issued by NWS

Home | Current Version | Previous Version | Graphics & Text | Print | Product List | Glossary On
Versions: 1 2 3 4 5 6 7 8 9 10 11 12 13 14 15 16 17 18 19 20 21 22 23 24 25 26 27 28 29 30 31 32 33 34 35 36 37 38 39 40 41 42 43 44 45 46 47 48 49 50
000
ASUS43 KOAX 031210
RWRNE

WEATHER ROUNDUP FOR NEBRASKA
NATIONAL WEATHER SERVICE OMAHA NE
700 AM CDT SUN MAY 03 2015

NOTES: SATELLITE DATA IS BEING USED TO AUGMENT CLOUD COVER ABOVE
       12000 FEET.
       "FAIR" INDICATES FEW OR NO CLOUDS BELOW 12,000 FEET WITH NO
       SIGNIFICANT WEATHER AND/OR OBSTRUCTIONS TO VISIBILITY.

  * THESE STATIONS DO NOT REPORT WEATHER SUCH AS RAIN...SNOW OR FOG.

NEZ001>004-019>022-054>056-031300-
NEBRASKA PANHANDLE

CITY           SKY/WX    TMP DP  RH WIND       PRES   REMARKS
SCOTTSBLUFF    CLEAR     51  41  68 VRB7      29.83R
6HR MIN TEMP:  48; 6HR MAX TEMP:  61;

ALLIANCE       PTCLDY    44  39  82 NW3       29.80R
6HR MIN TEMP:  40; 6HR MAX TEMP:  56;

CHADRON        PTCLDY    39  36  89 CALM      29.82R
6HR MIN TEMP:  39; 6HR MAX TEMP:  53;

KIMBALL        CLEAR     47  40  77 W12       29.87R
SIDNEY         PTCLDY    47  40  76 NW12      29.84S
6HR MIN TEMP:  47; 6HR MAX TEMP:  54;

$$

NEZ057>060-069>072-079>082-031300-
SOUTHWEST NEBRASKA

CITY           SKY/WX    TMP DP  RH WIND       PRES   REMARKS
NORTH PLATTE   PTCLDY    47  43  86 W5        29.76F
6HR MIN TEMP:  43; 6HR MAX TEMP:  57;

IMPERIAL       CLEAR     54  42  64 W14       29.80R
6HR MIN TEMP:  50; 6HR MAX TEMP:  69;

LEXINGTON      CLEAR     48  44  84 NW3       29.74F
MCCOOK         CLEAR     52  44  74 W7        29.77S
6HR MIN TEMP:  52; 6HR MAX TEMP:  66;

OGALLALA       CLEAR     49  45  85 W10       29.79S
$$

NEZ005>010-023>029-035>040-094-031300-
NORTH CENTRAL NEBRASKA

CITY           SKY/WX    TMP DP  RH WIND       PRES   REMARKS
VALENTINE      PTCLDY    45  40  82 NW8       29.73R
6HR MIN TEMP:  42; 6HR MAX TEMP:  58;

AINSWORTH      PTCLDY    53  42  67 W7        29.71S
BROKEN BOW     MOCLDY    57  43  59 VRB3      29.72S
6HR MIN TEMP:  53; 6HR MAX TEMP:  66;

O`NEILL        PTCLDY    55  54  95 S7        29.70S
ORD            MOCLDY    47  43  86 CALM      29.70S
6HR MIN TEMP:  46; 6HR MAX TEMP:  59;

THEDFORD       CLOUDY    57  44  62 NW5       29.74S
$$

NEZ041-046>049-061>064-073>077-083>087-031300-
SOUTH CENTRAL NEBRASKA

CITY           SKY/WX    TMP DP  RH WIND       PRES   REMARKS
GRAND ISLAND   PTCLDY    56  51  84 S9        29.74S
6HR MIN TEMP:  55; 6HR MAX TEMP:  70;

AURORA         PTCLDY    57  54  89 S9        29.73F
HASTINGS       PTCLDY    56  48  74 CALM      29.73S
6HR MIN TEMP:  56; 6HR MAX TEMP:  69;

HEBRON         PTCLDY    56  52  85 CALM      29.76R
HOLDREGE       PTCLDY    55  43  64 W7        29.75R
KEARNEY *      PTCLDY    57  43  58 NW7       29.73F
YORK           PTCLDY    59  54  82 S13       29.74S
$$

NEZ011>018-030>034-042>045-031300-
NORTHEAST NEBRASKA

CITY           SKY/WX    TMP DP  RH WIND       PRES   REMARKS
NORFOLK        PTCLDY    61  53  75 S14       29.71S
6HR MIN TEMP:  60; 6HR MAX TEMP:  64;

ALBION         FAIR      55  51  84 SE6       29.72S
BLAIR          CLEAR     61  54  77 SE5       29.74R
COLUMBUS *     CLEAR     59  50  72 S10       29.74S
FREMONT        PTCLDY    63  54  73 SE14      29.72F
TEKAMAH        PTCLDY    58  54  86 S10       29.72R
6HR MIN TEMP:  57; 6HR MAX TEMP:  72; 6HR PCP:  0.05;

WAYNE          PTCLDY    59  52  77 S13       29.71S
$$

NEZ050>053-065>068-078-088>093-031300-
SOUTHEAST NEBRASKA

CITY           SKY/WX    TMP DP  RH WIND       PRES   REMARKS
LINCOLN        CLEAR     60  54  80 S10       29.75F
6HR MIN TEMP:  60; 6HR MAX TEMP:  67;

OMAHA EPPLEY   MOCLDY    62  56  80 S15       29.74S
6HR MIN TEMP:  60; 6HR MAX TEMP:  62; 6HR PCP:  0.37;

BEATRICE       PTCLDY    60  55  81 SE8       29.76F
FALLS CITY     PTCLDY    59  54  83 SE6       29.80F
6HR MIN TEMP:  58; 6HR MAX TEMP:  65;

NEBRASKA CITY  PTCLDY    58  52  81 S9        29.79S
PLATTSMOUTH    PTCLDY    60  54  79 SE12G17   29.76F
$$

NEZ044-045-051>053-067-031300-
OMAHA AREA

CITY           SKY/WX    TMP DP  RH WIND       PRES   REMARKS
OMAHA EPPLEY   MOCLDY    62  56  80 S15       29.74S
6HR MIN TEMP:  60; 6HR MAX TEMP:  62; 6HR PCP:  0.37;

BLAIR          CLEAR     61  54  77 SE5       29.74R
FREMONT        PTCLDY    63  54  73 SE14      29.72F
MILLARD        CLEAR     63  56  78 SE10      29.74F
OFFUTT AFB     CLEAR     60  56  86 SE12      29.75S
PLATTSMOUTH    PTCLDY    60  54  79 SE12G17   29.76F
WAHOO          FAIR      60  54  79 S9        29.73S
$$



USA.gov is the U.S. government's official web portal to all federal, state and local government web resources and services.